Retour au catalogue

FENGYUN 1C DEB

ActifSSO
NORAD 30144·DEBRIS·🇨🇳 China

Lancé May 10, 1999 depuis Taiyuan Satellite Launch Center

Loading…

Prochains Passages (prochaines 24 heures)

TLE

FraisSource: Space-Track

Époque: Sep 14, 2026, 11:01 UTC

1 30144U 99025SZ  26257.45949428  .00000280  00000-0  23757-3 0  9991
2 30144  99.0290 247.8239 0124734 259.2234 254.9676 13.92137487996767

Suivez FENGYUN 1C DEB en temps réel avec AllMySat

Download on the App Store